FW3198 Weather Reports


Display with metric or nautical units.
time (UTC)temp
F
wind
direction
speed
MPH
gust
MPH
rain 1hr
in
rain 24hr
in
rain mn
in
humidity
%
barometer
mb
20260505021554 61 0 0.0 0.0 0.00 0.00 0.00 64 1015.6
20260505020056 62 0 0.0 0.0 0.00 0.00 0.00 65 1015.4
20260505014543 62 0 0.0 0.0 0.00 0.00 0.00 64 1015.4
20260505013053 63 0 0.0 0.0 0.00 0.00 0.00 60 1015.2
20260505011547 64 0 0.0 0.0 0.00 0.00 0.00 59 1015.1
20260505010107 65 0 0.0 0.0 0.00 0.00 0.00 57 1015.0
20260505004637 66 0 0.0 1.0 0.00 0.00 0.00 57 1014.9
20260505003051 67 0 0.0 1.0 0.00 0.00 0.00 54 1014.8
20260505001545 68 0 0.0 0.0 0.00 0.00 0.00 53 1014.6
20260505000058 70 0 0.0 0.0 0.00 0.00 0.00 50 1014.5
20260504234549 71 0 0.0 0.0 0.00 0.00 0.00 49 1014.5
20260504233054 71 0 0.0 0.0 0.00 0.00 0.00 48 1014.5
20260504231552 73 0 0.0 0.0 0.00 0.00 0.00 48 1014.5
20260504230104 73 0 0.0 0.0 0.00 0.00 0.00 45 1014.6
20260504224600 74 0 0.0 1.0 0.00 0.00 0.00 42 1014.6
20260504223050 76 118 0.0 4.0 0.00 0.00 0.00 39 1014.6
20260504221557 77 0 0.0 2.0 0.00 0.00 0.00 39 1014.5
20260504220053 79 147 0.0 4.0 0.00 0.00 0.00 38 1014.4
20260504214547 81 0 0.0 3.0 0.00 0.00 0.00 37 1014.5
20260504213050 82 241 0.0 1.0 0.00 0.00 0.00 34 1014.5
20260504211554 80 0 0.0 1.0 0.00 0.00 0.00 37 1014.4
20260504204555 80 0 0.0 1.0 0.00 0.00 0.00 38 1014.8
20260504203050 79 302 0.0 2.0 0.00 0.00 0.00 40 1014.9
20260504201549 79 209 0.0 3.0 0.00 0.00 0.00 40 1015.1
20260504194548 81 0 1.0 5.0 0.00 0.00 0.00 34 1015.2
20260504193055 81 278 0.0 4.0 0.00 0.00 0.00 35 1015.6
20260504191605 81 352 1.0 3.0 0.00 0.00 0.00 35 1015.8
20260504190047 81 128 0.0 3.0 0.00 0.00 0.00 37 1016.1
20260504184543 80 0 0.0 2.0 0.00 0.00 0.00 35 1016.3
20260504183054 80 175 0.0 2.0 0.00 0.00 0.00 36 1016.5
20260504181546 79 90 1.0 3.0 0.00 0.00 0.00 35 1016.6
20260504180047 77 96 1.0 3.0 0.00 0.00 0.00 38 1016.7
20260504174551 77 48 2.0 4.0 0.00 0.00 0.00 37 1016.8
20260504173046 78 112 0.0 2.0 0.00 0.00 0.00 44 1016.8
20260504171549 76 265 1.0 3.0 0.00 0.00 0.00 39 1017.1
20260504120109 44 0 0.0 0.0 0.00 0.00 0.00 95 1018.3
20260504081552 45 0 0.0 0.0 0.00 0.00 0.00 93 1017.8
20260504044552 49 0 0.0 0.0 0.00 0.00 0.00 86 1018.7
20260504043110 49 0 0.0 0.0 0.00 0.00 0.00 85 1018.7
20260504041549 49 0 0.0 0.0 0.00 0.00 0.00 86 1018.8
20260504040049 50 0 0.0 0.0 0.00 0.00 0.00 86 1018.8
20260504034552 50 0 0.0 0.0 0.00 0.00 0.00 85 1018.9
20260504033059 51 0 0.0 0.0 0.00 0.00 0.00 82 1018.9
20260504031552 51 0 0.0 0.0 0.00 0.00 0.00 82 1018.7
20260504024547 52 0 0.0 0.0 0.00 0.00 0.00 78 1018.6
20260504023048 53 0 0.0 0.0 0.00 0.00 0.00 77 1018.5